NINGXIA-1 7

Satellite information

Favourite Embed

Satellite Type and Status

PAYLOADIN ORBIT

Key statistics

Satellite NINGXIA-1 7 at a glance.

Uptime

1567

Days in orbit

Revolutions

≈ 14.1

Per day

Orbit

LEO

Low Earth Orbit

Inclination

45.0

Latest

Satellite identification and parameters

Extended collection of information and parameters for NINGXIA-1 7.

Object identification

Identified? True

Debris? False

Object name: NINGXIA-1 7

International designator: 2021-064B

Object number (NORAD): 49019

Object ID (CCSDS): 49019

Country: PEOPLES REPUBLIC OF CHINA (PRC)

Current information (Y/N): Y

RCS size: MEDIUM

Orbital parameters

Period: 102.241 minutes

Inclination: 45.0018 deg

SMA: 7242.853 km

Apoapsis: 869.542 km

Periapsis: 859.894 km

RAAN: 219.1126 deg

Eccentricy: 0.00066602

Argument of periapsis: 192.6025 deg

Mean anomaly: 167.4646 deg

Mean motion: 14.08439635 rev/day

Mean motion (dot): 0.00000044 rev/day2

B* drag term: 0.00010185612 1/REarth

Two-line elements (TLE)

Creation date: Oct. 23, 2025, 2:46 a.m.

Reference frame: TEME

Reference center: EARTH

Epoch: Oct. 22, 2025, 10:16 p.m. UTC

TLE line 0: 0 NINGXIA-1 7

TLE line 1: 1 49019U 21064B 25295.92787023 .00000044 00000-0 10186-3 0 9994

TLE line 2: 2 49019 45.0018 219.1126 0006660 192.6025 167.4646 14.08439635220795

Live tracking on map

Real-time ground track for satellite NINGXIA-1 7.

In-orbit conjunctions

There are no conjunctions computed for NINGXIA-1 7, at the moment. Check back to stay up to date, as we update our databases every day.

Go to all conjunctions

Associated space launch

The Ningxin-1 satellites (also called Zhongzi) are a series of Chinese commercial remote sensing satellite owned by Ningxia Jingui Information Technology Co. Ltd. The satellites were built by DFH Satellite Co. Ltd of CAST. They have been reported to be a commercial operated global EM spectrum signal monitoring satellite system (SIGINT).

NINGXIA-1 7 was lifted into orbit during the mission ‘Long March 6 | Zhongzi Group 02 (Ningxia-1-02)’, on board a Long March 6 space rocket.

The launch took place on July 9, 2021, 11:59 a.m. from Launch Complex 16.

For more information about the launch, click the button.

Launch to space Long March 6 | Zhongzi Group 02 (Ningxia-1-02)
Long March 6 | Zhongzi Group 02 (Ningxia-1-02)

Agency: N/A

Status: Launch Successful

Launch date: July 9, 2021, 11:59 a.m. UTC

Rocket: Long March 6

Launch pad: Launch Complex 16

Location: Taiyuan Satellite Launch Center, People's Republic of China

...

Latest news about this satellite

News about space launch
China’s Long March 6 launches five satellites

China successfully launched a Chang Zheng 6 rocket from LC-16 at the Taiyuan Satellite Launch Center at 11:59 UTC (7:59 PM Beijing time) on Friday July 9.  This launch is the sixth launch of the Chang Zheng 6 (CZ-6), also known as the Long March 6, and th...


Newsletter sign-up

Weekly statistics, charts and insights to help you stay on top of the space industry.